| time (UTC) | temp C | wind direction | speed KPH | gust KPH | rain 1hr cm | rain 24hr cm | rain mn cm | humidity % | barometer mb |
| 20260510060047 | 13 | 0 | 0.0 | 0.0 | 0.00 | 0.00 | 0.00 | 83 | 1016.7 |
| 20260510054551 | 13 | 0 | 0.0 | 0.0 | 0.00 | 0.00 | 0.00 | 82 | 1016.6 |
| 20260510053041 | 14 | 0 | 0.0 | 0.0 | 0.00 | 0.00 | 0.00 | 81 | 1016.7 |
| 20260510051541 | 14 | 0 | 0.0 | 3.2 | 0.00 | 0.00 | 0.00 | 81 | 1016.8 |
| 20260510050053 | 15 | 267 | 1.6 | 4.8 | 0.00 | 0.00 | 0.00 | 79 | 1016.7 |
| 20260510044545 | 15 | 275 | 0.0 | 3.2 | 0.00 | 0.00 | 0.00 | 77 | 1016.7 |
| 20260510043049 | 16 | 240 | 0.0 | 3.2 | 0.00 | 0.00 | 0.00 | 75 | 1016.7 |
| 20260510041547 | 16 | 0 | 0.0 | 3.2 | 0.00 | 0.00 | 0.00 | 74 | 1016.8 |
| 20260510040043 | 16 | 0 | 0.0 | 3.2 | 0.00 | 0.00 | 0.00 | 72 | 1016.5 |
| 20260510034545 | 17 | 0 | 0.0 | 3.2 | 0.00 | 0.00 | 0.00 | 69 | 1016.2 |
| 20260510033110 | 18 | 221 | 1.6 | 4.8 | 0.00 | 0.00 | 0.00 | 64 | 1016.1 |
| 20260510031552 | 20 | 259 | 1.6 | 4.8 | 0.00 | 0.00 | 0.00 | 57 | 1016.2 |
| 20260510030050 | 20 | 282 | 0.0 | 1.6 | 0.00 | 0.00 | 0.00 | 53 | 1016.1 |
| 20260510024546 | 21 | 312 | 0.0 | 6.4 | 0.00 | 0.00 | 0.00 | 51 | 1016.1 |
| 20260510023046 | 21 | 294 | 0.0 | 4.8 | 0.00 | 0.00 | 0.00 | 49 | 1016.0 |
| 20260510021547 | 21 | 18 | 1.6 | 8.0 | 0.00 | 0.00 | 0.00 | 45 | 1015.9 |
| 20260510020050 | 22 | 11 | 1.6 | 11.3 | 0.00 | 0.00 | 0.00 | 43 | 1015.8 |
| 20260510014551 | 22 | 9 | 3.2 | 8.0 | 0.00 | 0.00 | 0.00 | 42 | 1016.0 |
| 20260510013044 | 23 | 5 | 3.2 | 11.3 | 0.00 | 0.00 | 0.00 | 41 | 1016.1 |
| 20260510011553 | 24 | 352 | 3.2 | 8.0 | 0.00 | 0.00 | 0.00 | 38 | 1016.1 |
| 20260510010047 | 24 | 61 | 4.8 | 11.3 | 0.00 | 0.00 | 0.00 | 34 | 1016.2 |
| 20260510004549 | 25 | 5 | 3.2 | 8.0 | 0.00 | 0.00 | 0.00 | 32 | 1016.4 |
| 20260510003108 | 25 | 342 | 3.2 | 8.0 | 0.00 | 0.00 | 0.00 | 35 | 1016.5 |
| 20260510001546 | 25 | 12 | 1.6 | 6.4 | 0.00 | 0.00 | 0.00 | 38 | 1016.4 |
| 20260510000057 | 25 | 352 | 3.2 | 6.4 | 0.00 | 0.00 | 0.00 | 34 | 1016.6 |
| 20260509234600 | 25 | 0 | 0.0 | 3.2 | 0.00 | 0.00 | 0.00 | 31 | 1016.8 |
| 20260509233048 | 25 | 22 | 1.6 | 4.8 | 0.00 | 0.00 | 0.00 | 34 | 1016.9 |
| 20260509231552 | 25 | 5 | 0.0 | 6.4 | 0.00 | 0.00 | 0.00 | 37 | 1017.2 |
| 20260509230055 | 25 | 0 | 3.2 | 8.0 | 0.00 | 0.00 | 0.00 | 33 | 1017.4 |
| 20260509224546 | 25 | 42 | 1.6 | 6.4 | 0.00 | 0.00 | 0.00 | 39 | 1017.6 |
| 20260509223048 | 25 | 0 | 0.0 | 3.2 | 0.00 | 0.00 | 0.00 | 34 | 1017.6 |
| 20260509221544 | 25 | 351 | 3.2 | 6.4 | 0.00 | 0.00 | 0.00 | 35 | 1018.2 |
| 20260509220042 | 25 | 0 | 0.0 | 6.4 | 0.00 | 0.00 | 0.00 | 43 | 1018.5 |
| 20260509214540 | 24 | 93 | 0.0 | 6.4 | 0.00 | 0.00 | 0.00 | 35 | 1018.7 |
| 20260509213052 | 24 | 327 | 1.6 | 8.0 | 0.00 | 0.00 | 0.00 | 41 | 1018.8 |
| 20260509211548 | 23 | 319 | 3.2 | 8.0 | 0.00 | 0.00 | 0.00 | 38 | 1018.9 |
| 20260509210051 | 23 | 74 | 1.6 | 8.0 | 0.00 | 0.00 | 0.00 | 40 | 1019.2 |
| 20260509204550 | 22 | 360 | 4.8 | 9.7 | 0.00 | 0.00 | 0.00 | 41 | 1019.5 |
| 20260509203047 | 22 | 72 | 3.2 | 8.0 | 0.00 | 0.00 | 0.00 | 51 | 1019.6 |
| 20260509201545 | 21 | 0 | 1.6 | 9.7 | 0.00 | 0.00 | 0.00 | 50 | 1019.8 |
| 20260509200054 | 21 | 0 | 1.6 | 9.7 | 0.00 | 0.00 | 0.00 | 53 | 1019.9 |
| 20260509194548 | 20 | 320 | 3.2 | 8.0 | 0.00 | 0.00 | 0.00 | 58 | 1020.0 |
| 20260509193046 | 20 | 20 | 0.0 | 8.0 | 0.00 | 0.00 | 0.00 | 55 | 1020.4 |
| 20260509191546 | 20 | 213 | 0.0 | 8.0 | 0.00 | 0.00 | 0.00 | 59 | 1020.5 |
| 20260509190043 | 19 | 0 | 3.2 | 8.0 | 0.00 | 0.00 | 0.00 | 56 | 1020.6 |
| 20260509184547 | 18 | 351 | 1.6 | 11.3 | 0.00 | 0.00 | 0.00 | 62 | 1020.9 |
| 20260509183124 | 18 | 235 | 3.2 | 8.0 | 0.00 | 0.00 | 0.00 | 61 | 1021.0 |
| 20260509181606 | 18 | 77 | 1.6 | 4.8 | 0.00 | 0.00 | 0.00 | 63 | 1021.0 |
| 20260509180050 | 17 | 44 | 3.2 | 9.7 | 0.00 | 0.00 | 0.00 | 64 | 1021.2 |
| 20260509174543 | 17 | 45 | 3.2 | 8.0 | 0.00 | 0.00 | 0.00 | 65 | 1021.4 |
| 20260509173042 | 16 | 131 | 1.6 | 6.4 | 0.00 | 0.00 | 0.00 | 66 | 1021.4 |
| 20260509171556 | 16 | 0 | 0.0 | 6.4 | 0.00 | 0.00 | 0.00 | 70 | 1021.6 |
| 20260509170051 | 16 | 0 | 3.2 | 6.4 | 0.00 | 0.00 | 0.00 | 68 | 1021.5 |
| 20260509164553 | 15 | 37 | 1.6 | 8.0 | 0.00 | 0.00 | 0.00 | 73 | 1021.6 |
| 20260509163043 | 15 | 43 | 0.0 | 6.4 | 0.00 | 0.00 | 0.00 | 75 | 1021.8 |
| 20260509161541 | 15 | 94 | 1.6 | 6.4 | 0.00 | 0.00 | 0.00 | 76 | 1022.0 |
| 20260509160041 | 14 | 33 | 1.6 | 6.4 | 0.00 | 0.00 | 0.00 | 79 | 1022.3 |
| 20260509154546 | 13 | 289 | 1.6 | 8.0 | 0.00 | 0.00 | 0.00 | 78 | 1022.2 |
| 20260509153048 | 13 | 54 | 0.0 | 4.8 | 0.00 | 0.00 | 0.00 | 82 | 1022.3 |
| 20260509151549 | 12 | 65 | 0.0 | 3.2 | 0.00 | 0.00 | 0.00 | 83 | 1022.3 |
| 20260509150048 | 11 | 74 | 0.0 | 1.6 | 0.00 | 0.00 | 0.00 | 84 | 1022.4 |
| 20260509144542 | 10 | 109 | 0.0 | 3.2 | 0.00 | 0.00 | 0.00 | 90 | 1022.4 |
| 20260509143043 | 9 | 0 | 0.0 | 3.2 | 0.00 | 0.00 | 0.00 | 92 | 1022.4 |
| 20260509141541 | 8 | 63 | 0.0 | 3.2 | 0.00 | 0.00 | 0.00 | 95 | 1022.1 |
| 20260509140056 | 7 | 0 | 0.0 | 4.8 | 0.00 | 0.00 | 0.00 | 94 | 1022.0 |
| 20260509134547 | 7 | 0 | 0.0 | 3.2 | 0.00 | 0.00 | 0.00 | 94 | 1022.1 |
| 20260509133047 | 7 | 261 | 1.6 | 4.8 | 0.00 | 0.00 | 0.00 | 94 | 1022.2 |
| 20260509131546 | 7 | 312 | 0.0 | 4.8 | 0.00 | 0.00 | 0.00 | 94 | 1021.9 |
| 20260509130046 | 7 | 238 | 1.6 | 6.4 | 0.00 | 0.00 | 0.00 | 95 | 1022.0 |
| 20260509124542 | 6 | 264 | 1.6 | 4.8 | 0.00 | 0.00 | 0.00 | 94 | 1022.0 |
| 20260509123047 | 6 | 244 | 1.6 | 4.8 | 0.00 | 0.00 | 0.00 | 93 | 1022.1 |
| 20260509121550 | 7 | 268 | 1.6 | 4.8 | 0.00 | 0.00 | 0.00 | 94 | 1022.3 |
| 20260509120051 | 6 | 0 | 0.0 | 3.2 | 0.00 | 0.00 | 0.00 | 94 | 1022.4 |
| 20260509114547 | 7 | 257 | 1.6 | 4.8 | 0.00 | 0.00 | 0.00 | 94 | 1022.4 |
| 20260509113045 | 6 | 261 | 1.6 | 4.8 | 0.00 | 0.00 | 0.00 | 95 | 1022.6 |
| 20260509111551 | 6 | 248 | 0.0 | 4.8 | 0.00 | 0.00 | 0.00 | 94 | 1022.5 |
| 20260509110050 | 6 | 247 | 0.0 | 3.2 | 0.00 | 0.00 | 0.00 | 94 | 1022.7 |
| 20260509104545 | 7 | 247 | 1.6 | 3.2 | 0.00 | 0.00 | 0.00 | 93 | 1022.9 |
| 20260509103042 | 7 | 0 | 0.0 | 1.6 | 0.00 | 0.00 | 0.00 | 93 | 1023.0 |
| 20260509101551 | 7 | 0 | 1.6 | 4.8 | 0.00 | 0.00 | 0.00 | 92 | 1022.9 |
| 20260509100041 | 7 | 352 | 1.6 | 6.4 | 0.00 | 0.00 | 0.00 | 94 | 1022.9 |
| 20260509094549 | 7 | 0 | 0.0 | 3.2 | 0.00 | 0.00 | 0.00 | 94 | 1023.0 |
| 20260509093054 | 7 | 245 | 3.2 | 4.8 | 0.00 | 0.00 | 0.00 | 93 | 1023.0 |
| 20260509091543 | 7 | 275 | 1.6 | 3.2 | 0.00 | 0.00 | 0.00 | 93 | 1023.1 |
| 20260509090052 | 7 | 218 | 1.6 | 4.8 | 0.00 | 0.00 | 0.00 | 92 | 1023.3 |
| 20260509084550 | 8 | 0 | 0.0 | 1.6 | 0.00 | 0.00 | 0.00 | 93 | 1023.3 |
| 20260509083047 | 8 | 13 | 0.0 | 4.8 | 0.00 | 0.00 | 0.00 | 92 | 1023.4 |
| 20260509081549 | 8 | 308 | 1.6 | 4.8 | 0.00 | 0.00 | 0.00 | 92 | 1023.6 |
| 20260509080054 | 8 | 260 | 1.6 | 4.8 | 0.00 | 0.00 | 0.00 | 91 | 1023.7 |
| 20260509074543 | 8 | 248 | 3.2 | 6.4 | 0.00 | 0.00 | 0.00 | 91 | 1023.7 |
| 20260509073042 | 8 | 0 | 1.6 | 3.2 | 0.00 | 0.00 | 0.00 | 90 | 1023.8 |
| 20260509071552 | 9 | 234 | 1.6 | 3.2 | 0.00 | 0.00 | 0.00 | 88 | 1023.8 |
| 20260509070049 | 10 | 0 | 0.0 | 3.2 | 0.00 | 0.00 | 0.00 | 87 | 1023.8 |
| 20260509064546 | 10 | 294 | 0.0 | 4.8 | 0.00 | 0.00 | 0.00 | 87 | 1023.6 |
| 20260509063047 | 10 | 256 | 0.0 | 4.8 | 0.00 | 0.00 | 0.00 | 88 | 1023.7 |
| 20260509061545 | 10 | 296 | 1.6 | 6.4 | 0.00 | 0.00 | 0.00 | 88 | 1023.7 |